User: anonymous   Login
Location: Unspecified
(0.0000°N, 0.0000°E)
Time: 05:50:13
(UTC+00:00)
Language:

QIANFAN-72 - Orbit

View from above orbital plane
View from above orbital plane
View from above satellite
View from above satellite

Ground track
Ground track

The orbit is defined by the following mean orbital elements,

1 62802U          26145.55464985 +.00000000 +00000-0 +13123-3 0 00008
2 62802  88.9714  86.0786 0016746 240.3964 119.5519 13.51012086    02
Epoch (UTC): 25 May 2026 13:18:41
Eccentricity: 0.0016746
inclination: 88.9714°
perigee height: 1056 km
apogee height: 1081 km
right ascension of ascending node: 86.0786°
argument of perigee: 240.3964°
revolutions per day: 13.51012086
mean anomaly at epoch: 119.5519°

The dashed part of the orbit path shows where the satellite is in the earth's shadow,  

DLR